User: anonymous   Login
Location: Bushrod
(6.3500°N, 10.7833°W)
Time: 20:45:36
(UTC+00:00)
Language:

Cosmos 1939 Rocket - Orbit

View from above orbital plane
View from above orbital plane
View from above satellite
View from above satellite

Ground track
Ground track

The orbit data is extracted from the following two-line orbital elements,

1 19046U 88032B   19325.16949187  .00000628  00000-0  50918-4 0  9999
2 19046  97.4195 350.3024 0037009 197.8839 162.1087 15.02621330705828
Epoch (UTC): 21 November 2019 04:04:04
Eccentricity: 0.0037009
inclination: 97.4195°
perigee height: 533 km
apogee height: 584 km
right ascension of ascending node: 350.3024°
argument of perigee: 197.8839°
revolutions per day: 15.02621330
mean anomaly at epoch: 162.1087°
orbit number at epoch: 70582

The dashed part of the orbit path shows where the satellite is in the earth's shadow,  

DLR